| time (UTC) | temp F | wind direction | speed knots | gust knots | rain 1hr in | rain 24hr in | rain mn in | humidity % | barometer mb |
| 20260506124615 | 53 | 48 | 13.9 | 20.0 | 0.00 | 0.00 | 0.00 | 81 | 1013.0 |
| 20260506124112 | 53 | 26 | 1.7 | 15.6 | 0.00 | 0.00 | 0.00 | 80 | 1013.1 |
| 20260506123610 | 54 | 17 | 7.8 | 15.6 | 0.00 | 0.00 | 0.00 | 80 | 1013.1 |
| 20260506123108 | 54 | 58 | 7.8 | 13.0 | 0.00 | 0.00 | 0.00 | 79 | 1013.0 |
| 20260506122604 | 54 | 34 | 12.2 | 20.0 | 0.00 | 0.00 | 0.00 | 79 | 1013.0 |
| 20260506122103 | 54 | 359 | 10.4 | 24.3 | 0.00 | 0.00 | 0.00 | 78 | 1013.1 |
| 20260506121600 | 54 | 18 | 10.4 | 18.2 | 0.00 | 0.00 | 0.00 | 78 | 1012.8 |
| 20260506121056 | 54 | 321 | 13.0 | 18.2 | 0.00 | 0.00 | 0.00 | 77 | 1013.0 |
| 20260506120554 | 55 | 317 | 10.4 | 15.6 | 0.00 | 0.00 | 0.00 | 77 | 1012.9 |
| 20260506120051 | 55 | 26 | 8.7 | 15.6 | 0.00 | 0.00 | 0.00 | 76 | 1012.9 |
| 20260506115549 | 55 | 83 | 5.2 | 20.0 | 0.00 | 0.00 | 0.00 | 76 | 1012.6 |
| 20260506115047 | 55 | 136 | 1.7 | 20.0 | 0.00 | 0.00 | 0.00 | 76 | 1012.9 |
| 20260506114544 | 55 | 313 | 5.2 | 15.6 | 0.00 | 0.00 | 0.00 | 76 | 1012.7 |
| 20260506114043 | 55 | 56 | 7.0 | 18.2 | 0.00 | 0.00 | 0.00 | 76 | 1012.7 |
| 20260506113540 | 55 | 37 | 7.8 | 22.6 | 0.00 | 0.00 | 0.00 | 76 | 1012.7 |
| 20260506113037 | 55 | 332 | 9.6 | 15.6 | 0.00 | 0.00 | 0.00 | 77 | 1012.5 |
| 20260506112534 | 56 | 6 | 13.9 | 22.6 | 0.00 | 0.00 | 0.00 | 77 | 1012.4 |
| 20260506112031 | 56 | 52 | 7.0 | 11.3 | 0.00 | 0.00 | 0.00 | 76 | 1012.2 |
| 20260506111529 | 56 | 65 | 6.1 | 15.6 | 0.00 | 0.00 | 0.00 | 76 | 1012.3 |
| 20260506111026 | 56 | 1 | 9.6 | 11.3 | 0.00 | 0.00 | 0.00 | 76 | 1012.0 |
| 20260506110524 | 56 | 57 | 5.2 | 15.6 | 0.00 | 0.00 | 0.00 | 76 | 1012.0 |
| 20260506110021 | 56 | 36 | 7.0 | 15.6 | 0.00 | 0.00 | 0.00 | 76 | 1011.7 |
| 20260506105517 | 56 | 348 | 2.6 | 13.0 | 0.00 | 0.00 | 0.00 | 76 | 1011.8 |
| 20260506105014 | 56 | 36 | 7.0 | 11.3 | 0.00 | 0.00 | 0.00 | 76 | 1011.9 |
| 20260506104512 | 57 | 307 | 10.4 | 15.6 | 0.00 | 0.00 | 0.00 | 76 | 1011.7 |
| 20260506104010 | 57 | 75 | 4.3 | 24.3 | 0.00 | 0.00 | 0.00 | 76 | 1011.3 |
| 20260506103507 | 57 | 326 | 7.8 | 24.3 | 0.00 | 0.00 | 0.00 | 76 | 1011.3 |
| 20260506103003 | 57 | 9 | 6.1 | 11.3 | 0.00 | 0.00 | 0.00 | 76 | 1011.5 |
| 20260506102502 | 57 | 3 | 9.6 | 15.6 | 0.00 | 0.00 | 0.00 | 76 | 1011.5 |
| 20260506101959 | 57 | 33 | 8.7 | 15.6 | 0.00 | 0.00 | 0.00 | 76 | 1011.3 |
| 20260506101455 | 57 | 3 | 8.7 | 13.0 | 0.00 | 0.00 | 0.00 | 76 | 1011.2 |
| 20260506100952 | 57 | 40 | 6.1 | 11.3 | 0.00 | 0.00 | 0.00 | 76 | 1011.0 |
| 20260506100451 | 57 | 353 | 8.7 | 11.3 | 0.00 | 0.00 | 0.00 | 76 | 1010.9 |
| 20260506095948 | 57 | 52 | 1.7 | 8.7 | 0.00 | 0.00 | 0.00 | 77 | 1010.8 |
| 20260506095447 | 57 | 296 | 5.2 | 11.3 | 0.00 | 0.00 | 0.00 | 76 | 1010.9 |
| 20260506094942 | 57 | 44 | 5.2 | 8.7 | 0.00 | 0.00 | 0.00 | 76 | 1010.8 |
| 20260506094441 | 57 | 34 | 11.3 | 13.0 | 0.00 | 0.00 | 0.00 | 76 | 1010.8 |
| 20260506093938 | 57 | 13 | 5.2 | 13.0 | 0.00 | 0.00 | 0.00 | 77 | 1010.7 |
| 20260506093437 | 57 | 14 | 6.1 | 15.6 | 0.00 | 0.00 | 0.00 | 77 | 1010.7 |
| 20260506092934 | 57 | 54 | 3.5 | 7.0 | 0.00 | 0.00 | 0.00 | 77 | 1010.8 |
| 20260506092432 | 57 | 20 | 7.0 | 18.2 | 0.00 | 0.00 | 0.00 | 77 | 1010.9 |
| 20260506091928 | 57 | 29 | 6.1 | 11.3 | 0.00 | 0.00 | 0.00 | 77 | 1010.6 |
| 20260506091426 | 57 | 336 | 12.2 | 15.6 | 0.00 | 0.00 | 0.00 | 77 | 1010.6 |
| 20260506090923 | 57 | 339 | 8.7 | 13.0 | 0.00 | 0.00 | 0.00 | 78 | 1010.6 |
| 20260506090420 | 57 | 55 | 3.5 | 15.6 | 0.00 | 0.00 | 0.00 | 77 | 1010.5 |
| 20260506085917 | 58 | 64 | 2.6 | 15.6 | 0.00 | 0.00 | 0.00 | 77 | 1010.5 |
| 20260506085414 | 58 | 33 | 3.5 | 7.0 | 0.00 | 0.00 | 0.00 | 78 | 1010.6 |
| 20260506084910 | 58 | 355 | 4.3 | 15.6 | 0.00 | 0.00 | 0.00 | 77 | 1010.5 |
| 20260506084407 | 58 | 51 | 4.3 | 13.0 | 0.00 | 0.00 | 0.00 | 78 | 1010.5 |
| 20260506083903 | 58 | 7 | 5.2 | 15.6 | 0.00 | 0.00 | 0.00 | 78 | 1010.3 |
| 20260506083401 | 58 | 23 | 1.7 | 8.7 | 0.00 | 0.00 | 0.00 | 78 | 1010.5 |
| 20260506082858 | 58 | 346 | 5.2 | 13.0 | 0.00 | 0.00 | 0.00 | 77 | 1010.4 |
| 20260506082355 | 58 | 22 | 7.0 | 11.3 | 0.00 | 0.00 | 0.00 | 78 | 1010.1 |
| 20260506081851 | 58 | 4 | 8.7 | 11.3 | 0.00 | 0.00 | 0.00 | 78 | 1010.2 |
| 20260506081349 | 58 | 356 | 5.2 | 8.7 | 0.00 | 0.00 | 0.00 | 79 | 1010.2 |
| 20260506080846 | 58 | 355 | 7.0 | 11.3 | 0.00 | 0.00 | 0.00 | 78 | 1010.3 |
| 20260506080343 | 58 | 41 | 5.2 | 18.2 | 0.00 | 0.00 | 0.00 | 78 | 1010.2 |
| 20260506073327 | 59 | 13 | 9.6 | 11.3 | 0.00 | 0.00 | 0.00 | 80 | 1010.0 |
| 20260506072824 | 59 | 47 | 6.1 | 13.0 | 0.00 | 0.00 | 0.00 | 81 | 1010.2 |
| 20260506072321 | 59 | 51 | 6.1 | 8.7 | 0.00 | 0.00 | 0.00 | 81 | 1009.8 |
| 20260506071819 | 58 | 28 | 3.5 | 18.2 | 0.00 | 0.00 | 0.00 | 81 | 1010.0 |
| 20260506071317 | 58 | 136 | 4.3 | 11.3 | 0.00 | 0.00 | 0.00 | 81 | 1009.8 |
| 20260506070813 | 59 | 0 | 5.2 | 7.0 | 0.00 | 0.00 | 0.00 | 81 | 1010.0 |
| 20260506070310 | 59 | 41 | 1.7 | 8.7 | 0.00 | 0.00 | 0.00 | 81 | 1009.9 |
| 20260506062248 | 60 | 1 | 7.0 | 11.3 | 0.00 | 0.00 | 0.00 | 80 | 1009.9 |
| 20260506061743 | 60 | 58 | 5.2 | 13.0 | 0.00 | 0.00 | 0.00 | 80 | 1009.5 |
| 20260506061241 | 60 | 326 | 5.2 | 20.0 | 0.00 | 0.00 | 0.00 | 79 | 1009.8 |
| 20260506060739 | 60 | 26 | 12.2 | 18.2 | 0.00 | 0.00 | 0.00 | 79 | 1009.9 |
| 20260506060236 | 60 | 22 | 10.4 | 15.6 | 0.00 | 0.00 | 0.00 | 79 | 1009.8 |
| 20260506051208 | 62 | 35 | 11.3 | 18.2 | 0.00 | 0.00 | 0.00 | 78 | 1009.9 |
| 20260506050707 | 62 | 38 | 8.7 | 18.2 | 0.00 | 0.00 | 0.00 | 77 | 1010.0 |
| 20260506050203 | 62 | 12 | 5.2 | 13.0 | 0.00 | 0.00 | 0.00 | 77 | 1009.8 |
| 20260506044654 | 63 | 39 | 6.1 | 18.2 | 0.00 | 0.00 | 0.00 | 77 | 1009.8 |
| 20260506044151 | 63 | 16 | 7.0 | 15.6 | 0.00 | 0.00 | 0.00 | 77 | 1009.5 |
| 20260506043648 | 63 | 300 | 0.9 | 18.2 | 0.00 | 0.00 | 0.00 | 77 | 1009.4 |
| 20260506043146 | 64 | 1 | 7.0 | 15.6 | 0.00 | 0.00 | 0.00 | 77 | 1009.5 |
| 20260506042645 | 64 | 110 | 5.2 | 13.0 | 0.00 | 0.00 | 0.00 | 77 | 1009.5 |
| 20260506042143 | 64 | 18 | 7.8 | 15.6 | 0.00 | 0.00 | 0.00 | 76 | 1009.4 |
| 20260506041641 | 64 | 51 | 12.2 | 15.6 | 0.00 | 0.00 | 0.00 | 76 | 1009.5 |
| 20260506041137 | 65 | 5 | 8.7 | 15.6 | 0.00 | 0.00 | 0.00 | 76 | 1009.6 |
| 20260506040635 | 65 | 31 | 11.3 | 15.6 | 0.00 | 0.00 | 0.00 | 75 | 1009.9 |
| 20260506040132 | 65 | 352 | 7.8 | 24.3 | 0.00 | 0.00 | 0.00 | 75 | 1010.0 |
| 20260506035629 | 65 | 353 | 10.4 | 20.0 | 0.00 | 0.00 | 0.00 | 74 | 1009.6 |
| 20260506035125 | 66 | 37 | 11.3 | 18.2 | 0.00 | 0.00 | 0.00 | 74 | 1009.6 |
| 20260506034623 | 66 | 56 | 8.7 | 15.6 | 0.00 | 0.00 | 0.00 | 73 | 1009.4 |
| 20260506034119 | 66 | 340 | 11.3 | 15.6 | 0.00 | 0.00 | 0.00 | 73 | 1009.4 |
| 20260506033617 | 66 | 316 | 6.1 | 13.0 | 0.00 | 0.00 | 0.00 | 73 | 1009.1 |
| 20260506033114 | 66 | 34 | 10.4 | 20.0 | 0.00 | 0.00 | 0.00 | 72 | 1008.9 |
| 20260506032611 | 66 | 13 | 7.0 | 18.2 | 0.00 | 0.00 | 0.00 | 72 | 1008.9 |
| 20260506032107 | 67 | 307 | 4.3 | 11.3 | 0.00 | 0.00 | 0.00 | 72 | 1008.8 |
| 20260506031605 | 67 | 38 | 6.1 | 24.3 | 0.00 | 0.00 | 0.00 | 72 | 1008.8 |
| 20260506031102 | 67 | 343 | 10.4 | 18.2 | 0.00 | 0.00 | 0.00 | 72 | 1008.6 |
| 20260506030600 | 67 | 53 | 1.7 | 7.0 | 0.00 | 0.00 | 0.00 | 72 | 1008.5 |
| 20260506030057 | 67 | 354 | 7.0 | 18.2 | 0.00 | 0.00 | 0.00 | 72 | 1008.4 |
| 20260506025554 | 67 | 88 | 4.3 | 18.2 | 0.00 | 0.00 | 0.00 | 72 | 1008.5 |
| 20260506025050 | 67 | 37 | 15.6 | 24.3 | 0.00 | 0.00 | 0.00 | 71 | 1008.3 |
| 20260506024547 | 67 | 75 | 6.1 | 8.7 | 0.00 | 0.00 | 0.00 | 71 | 1008.0 |
| 20260506024044 | 67 | 30 | 7.8 | 18.2 | 0.00 | 0.00 | 0.00 | 71 | 1007.9 |
| 20260506023539 | 67 | 53 | 11.3 | 15.6 | 0.00 | 0.00 | 0.00 | 70 | 1008.2 |
| 20260506023037 | 68 | 291 | 10.4 | 18.2 | 0.00 | 0.00 | 0.00 | 70 | 1007.9 |
| 20260506022535 | 68 | 17 | 13.0 | 18.2 | 0.00 | 0.00 | 0.00 | 69 | 1007.8 |
| 20260506022032 | 68 | 143 | 4.3 | 15.6 | 0.00 | 0.00 | 0.00 | 70 | 1007.7 |
| 20260506021529 | 68 | 336 | 7.0 | 20.0 | 0.00 | 0.00 | 0.00 | 70 | 1007.6 |
| 20260506021026 | 69 | 9 | 10.4 | 26.9 | 0.00 | 0.00 | 0.00 | 70 | 1007.9 |
| 20260506020524 | 69 | 35 | 4.3 | 11.3 | 0.00 | 0.00 | 0.00 | 71 | 1007.6 |
| 20260506020021 | 69 | 353 | 4.3 | 13.0 | 0.00 | 0.00 | 0.00 | 70 | 1007.5 |
| 20260506015519 | 70 | 49 | 7.0 | 18.2 | 0.00 | 0.00 | 0.00 | 70 | 1007.4 |
| 20260506015015 | 70 | 50 | 9.6 | 18.2 | 0.00 | 0.00 | 0.00 | 69 | 1007.1 |
| 20260506014513 | 70 | 18 | 11.3 | 20.0 | 0.00 | 0.00 | 0.00 | 69 | 1006.9 |
| 20260506014009 | 70 | 43 | 8.7 | 15.6 | 0.00 | 0.00 | 0.00 | 69 | 1007.0 |
| 20260506013507 | 71 | 9 | 6.1 | 13.0 | 0.00 | 0.00 | 0.00 | 69 | 1006.8 |
| 20260506013003 | 71 | 22 | 11.3 | 15.6 | 0.00 | 0.00 | 0.00 | 69 | 1006.8 |
| 20260506012459 | 71 | 4 | 12.2 | 18.2 | 0.00 | 0.00 | 0.00 | 69 | 1006.3 |
| 20260506011956 | 71 | 32 | 0.9 | 13.0 | 0.00 | 0.00 | 0.00 | 68 | 1006.4 |
| 20260506011454 | 72 | 28 | 4.3 | 13.0 | 0.00 | 0.00 | 0.00 | 68 | 1006.2 |
| 20260506010950 | 72 | 29 | 7.0 | 11.3 | 0.00 | 0.00 | 0.00 | 67 | 1006.1 |
| 20260506010449 | 72 | 26 | 9.6 | 13.0 | 0.00 | 0.00 | 0.00 | 67 | 1005.9 |
| 20260506005945 | 73 | 11 | 1.7 | 13.0 | 0.00 | 0.00 | 0.00 | 66 | 1006.0 |
| 20260506005443 | 73 | 17 | 13.0 | 15.6 | 0.00 | 0.00 | 0.00 | 66 | 1006.3 |
| 20260506004938 | 73 | 78 | 2.6 | 8.7 | 0.00 | 0.00 | 0.00 | 66 | 1005.9 |
| 20260506004436 | 73 | 30 | 9.6 | 13.0 | 0.00 | 0.00 | 0.00 | 65 | 1005.8 |
| 20260506003931 | 73 | 299 | 5.2 | 11.3 | 0.00 | 0.00 | 0.00 | 65 | 1005.8 |
| 20260506003429 | 73 | 102 | 4.3 | 13.0 | 0.00 | 0.00 | 0.00 | 64 | 1005.8 |
| 20260506002925 | 74 | 287 | 8.7 | 18.2 | 0.00 | 0.00 | 0.00 | 64 | 1005.5 |
| 20260506002421 | 74 | 298 | 3.5 | 7.0 | 0.00 | 0.00 | 0.00 | 64 | 1005.5 |
| 20260506001917 | 74 | 17 | 10.4 | 20.0 | 0.00 | 0.00 | 0.00 | 64 | 1005.6 |
| 20260506001414 | 75 | 49 | 6.1 | 11.3 | 0.00 | 0.00 | 0.00 | 64 | 1005.3 |
| 20260506000911 | 75 | 44 | 5.2 | 13.0 | 0.00 | 0.00 | 0.00 | 63 | 1005.3 |
| 20260506000409 | 75 | 348 | 7.0 | 8.7 | 0.00 | 0.00 | 0.00 | 62 | 1005.1 |
| 20260505235905 | 75 | 337 | 5.2 | 22.6 | 0.00 | 0.00 | 0.00 | 61 | 1005.3 |
| 20260505235403 | 76 | 322 | 11.3 | 15.6 | 0.00 | 0.00 | 0.00 | 60 | 1005.3 |
| 20260505234900 | 76 | 76 | 10.4 | 15.6 | 0.00 | 0.00 | 0.00 | 60 | 1005.3 |
| 20260505234358 | 76 | 334 | 10.4 | 22.6 | 0.00 | 0.00 | 0.00 | 59 | 1005.1 |
| 20260505233854 | 77 | 57 | 7.0 | 20.0 | 0.00 | 0.00 | 0.00 | 59 | 1005.3 |
| 20260505233352 | 78 | 275 | 10.4 | 35.6 | 0.00 | 0.00 | 0.00 | 59 | 1004.9 |
| 20260505232849 | 79 | 61 | 9.6 | 20.0 | 0.00 | 0.00 | 0.00 | 59 | 1004.8 |
| 20260505232347 | 80 | 228 | 9.6 | 13.0 | 0.00 | 0.00 | 0.00 | 59 | 1004.9 |
| 20260505231843 | 79 | 13 | 10.4 | 15.6 | 0.00 | 0.00 | 0.00 | 58 | 1005.0 |
| 20260505231341 | 79 | 346 | 19.1 | 28.7 | 0.00 | 0.00 | 0.00 | 59 | 1004.9 |
| 20260505230839 | 79 | 332 | 6.1 | 13.0 | 0.00 | 0.00 | 0.00 | 58 | 1004.7 |
| 20260505230336 | 80 | 303 | 8.7 | 18.2 | 0.00 | 0.00 | 0.00 | 58 | 1004.8 |
| 20260505225833 | 81 | 318 | 8.7 | 20.0 | 0.00 | 0.00 | 0.00 | 59 | 1004.8 |
| 20260505225330 | 82 | 334 | 13.0 | 20.0 | 0.00 | 0.00 | 0.00 | 59 | 1004.7 |
| 20260505224825 | 82 | 20 | 13.0 | 24.3 | 0.00 | 0.00 | 0.00 | 59 | 1004.7 |
| 20260505224323 | 85 | 352 | 13.0 | 15.6 | 0.00 | 0.00 | 0.00 | 56 | 1004.4 |
| 20260505223820 | 85 | 335 | 8.7 | 20.0 | 0.00 | 0.00 | 0.00 | 53 | 1004.3 |
| 20260505223317 | 86 | 47 | 3.5 | 20.0 | 0.00 | 0.00 | 0.00 | 51 | 1004.2 |
| 20260505222812 | 85 | 65 | 5.2 | 18.2 | 0.00 | 0.00 | 0.00 | 50 | 1004.3 |
| 20260505222309 | 85 | 330 | 6.1 | 15.6 | 0.00 | 0.00 | 0.00 | 49 | 1004.2 |
| 20260505221806 | 84 | 63 | 8.7 | 11.3 | 0.00 | 0.00 | 0.00 | 49 | 1004.1 |
| 20260505221303 | 85 | 263 | 6.1 | 15.6 | 0.00 | 0.00 | 0.00 | 48 | 1004.2 |
| 20260505220800 | 86 | 323 | 7.8 | 15.6 | 0.00 | 0.00 | 0.00 | 47 | 1004.0 |
| 20260505220257 | 87 | 343 | 7.8 | 11.3 | 0.00 | 0.00 | 0.00 | 46 | 1004.0 |
| 20260505215755 | 87 | 208 | 3.5 | 13.0 | 0.00 | 0.00 | 0.00 | 46 | 1003.8 |
| 20260505215253 | 87 | 344 | 8.7 | 20.0 | 0.00 | 0.00 | 0.00 | 46 | 1004.0 |
| 20260505214750 | 88 | 321 | 11.3 | 20.0 | 0.00 | 0.00 | 0.00 | 45 | 1004.0 |
| 20260505214247 | 93 | 346 | 13.9 | 22.6 | 0.00 | 0.00 | 0.00 | 42 | 1003.9 |
| 20260505213744 | 95 | 258 | 7.0 | 11.3 | 0.00 | 0.00 | 0.00 | 42 | 1003.9 |
| 20260505213242 | 94 | 344 | 3.5 | 20.0 | 0.00 | 0.00 | 0.00 | 44 | 1003.9 |
| 20260505212737 | 93 | 249 | 8.7 | 13.0 | 0.00 | 0.00 | 0.00 | 44 | 1003.9 |
| 20260505212235 | 93 | 245 | 3.5 | 11.3 | 0.00 | 0.00 | 0.00 | 44 | 1003.9 |
| 20260505211732 | 92 | 248 | 3.5 | 8.7 | 0.00 | 0.00 | 0.00 | 43 | 1004.1 |
| 20260505211229 | 91 | 204 | 0.9 | 13.0 | 0.00 | 0.00 | 0.00 | 46 | 1003.9 |
| 20260505210725 | 91 | 179 | 11.3 | 15.6 | 0.00 | 0.00 | 0.00 | 44 | 1004.1 |
| 20260505210222 | 92 | 194 | 3.5 | 4.3 | 0.00 | 0.00 | 0.00 | 45 | 1004.2 |
| 20260505205720 | 92 | 226 | 6.1 | 8.7 | 0.00 | 0.00 | 0.00 | 44 | 1004.3 |
| 20260505205218 | 93 | 237 | 2.6 | 13.0 | 0.00 | 0.00 | 0.00 | 44 | 1004.5 |
| 20260505204714 | 92 | 190 | 10.4 | 13.0 | 0.00 | 0.00 | 0.00 | 43 | 1004.4 |
| 20260505204212 | 91 | 260 | 6.1 | 11.3 | 0.00 | 0.00 | 0.00 | 45 | 1004.6 |
| 20260505203709 | 91 | 212 | 11.3 | 15.6 | 0.00 | 0.00 | 0.00 | 45 | 1004.5 |
| 20260505203206 | 91 | 264 | 6.1 | 8.7 | 0.00 | 0.00 | 0.00 | 45 | 1004.5 |
| 20260505202701 | 92 | 230 | 7.8 | 13.0 | 0.00 | 0.00 | 0.00 | 45 | 1004.2 |
| 20260505202158 | 91 | 276 | 11.3 | 24.3 | 0.00 | 0.00 | 0.00 | 47 | 1004.6 |
| 20260505201654 | 92 | 198 | 8.7 | 20.0 | 0.00 | 0.00 | 0.00 | 48 | 1004.5 |
| 20260505201153 | 91 | 253 | 6.1 | 11.3 | 0.00 | 0.00 | 0.00 | 46 | 1004.6 |
| 20260505200650 | 92 | 273 | 9.6 | 22.6 | 0.00 | 0.00 | 0.00 | 46 | 1004.7 |
| 20260505200147 | 91 | 198 | 7.8 | 15.6 | 0.00 | 0.00 | 0.00 | 47 | 1004.9 |
| 20260505195643 | 91 | 325 | 7.0 | 13.0 | 0.00 | 0.00 | 0.00 | 48 | 1004.9 |
| 20260505195140 | 91 | 217 | 2.6 | 13.0 | 0.00 | 0.00 | 0.00 | 54 | 1004.9 |
| 20260505194637 | 89 | 229 | 8.7 | 20.0 | 0.00 | 0.00 | 0.00 | 51 | 1004.8 |
| 20260505194133 | 90 | 271 | 7.0 | 11.3 | 0.00 | 0.00 | 0.00 | 50 | 1004.8 |
| 20260505193630 | 90 | 213 | 6.1 | 13.0 | 0.00 | 0.00 | 0.00 | 52 | 1004.8 |
| 20260505193127 | 89 | 270 | 10.4 | 24.3 | 0.00 | 0.00 | 0.00 | 52 | 1005.0 |
| 20260505192626 | 89 | 109 | 0.9 | 18.2 | 0.00 | 0.00 | 0.00 | 52 | 1004.8 |
| 20260505192123 | 89 | 214 | 10.4 | 15.6 | 0.00 | 0.00 | 0.00 | 53 | 1004.8 |
| 20260505191621 | 88 | 151 | 7.0 | 20.0 | 0.00 | 0.00 | 0.00 | 56 | 1004.9 |
| 20260505191119 | 88 | 172 | 6.1 | 20.0 | 0.00 | 0.00 | 0.00 | 56 | 1004.8 |
| 20260505190614 | 89 | 216 | 9.6 | 18.2 | 0.00 | 0.00 | 0.00 | 54 | 1004.6 |
| 20260505190109 | 88 | 171 | 7.0 | 13.0 | 0.00 | 0.00 | 0.00 | 57 | 1004.7 |
| 20260505185607 | 88 | 218 | 4.3 | 15.6 | 0.00 | 0.00 | 0.00 | 57 | 1004.7 |
| 20260505185103 | 88 | 223 | 8.7 | 20.0 | 0.00 | 0.00 | 0.00 | 55 | 1004.8 |
| 20260505184559 | 88 | 184 | 9.6 | 20.0 | 0.00 | 0.00 | 0.00 | 55 | 1004.8 |
| 20260505184056 | 87 | 287 | 9.6 | 15.6 | 0.00 | 0.00 | 0.00 | 56 | 1004.8 |
| 20260505183553 | 87 | 252 | 11.3 | 22.6 | 0.00 | 0.00 | 0.00 | 58 | 1004.8 |
| 20260505183051 | 86 | 270 | 13.0 | 18.2 | 0.00 | 0.00 | 0.00 | 57 | 1004.9 |
| 20260505182547 | 87 | 229 | 7.8 | 20.0 | 0.00 | 0.00 | 0.00 | 59 | 1004.8 |
| 20260505182044 | 86 | 256 | 5.2 | 11.3 | 0.00 | 0.00 | 0.00 | 59 | 1005.1 |
| 20260505181540 | 85 | 238 | 13.0 | 28.7 | 0.00 | 0.00 | 0.00 | 60 | 1005.2 |
| 20260505181038 | 85 | 157 | 8.7 | 15.6 | 0.00 | 0.00 | 0.00 | 61 | 1005.0 |
| 20260505180533 | 84 | 212 | 9.6 | 26.9 | 0.00 | 0.00 | 0.00 | 62 | 1005.0 |
| 20260505180032 | 84 | 175 | 11.3 | 18.2 | 0.00 | 0.00 | 0.00 | 62 | 1005.2 |
| 20260505175531 | 84 | 85 | 3.5 | 22.6 | 0.00 | 0.00 | 0.00 | 62 | 1005.3 |
| 20260505175029 | 84 | 230 | 13.0 | 20.0 | 0.00 | 0.00 | 0.00 | 64 | 1005.2 |
| 20260505174526 | 83 | 241 | 7.0 | 15.6 | 0.00 | 0.00 | 0.00 | 64 | 1005.2 |
| 20260505174022 | 83 | 115 | 3.5 | 13.0 | 0.00 | 0.00 | 0.00 | 64 | 1005.2 |
| 20260505173519 | 84 | 202 | 5.2 | 15.6 | 0.00 | 0.00 | 0.00 | 64 | 1005.5 |
| 20260505173015 | 84 | 259 | 8.7 | 26.9 | 0.00 | 0.00 | 0.00 | 64 | 1005.5 |
| 20260505172514 | 83 | 180 | 0.9 | 11.3 | 0.00 | 0.00 | 0.00 | 67 | 1005.1 |
| 20260505172009 | 83 | 293 | 4.3 | 18.2 | 0.00 | 0.00 | 0.00 | 67 | 1005.6 |
| 20260505171505 | 82 | 334 | 4.3 | 13.0 | 0.00 | 0.00 | 0.00 | 67 | 1005.6 |
| 20260505171002 | 82 | 210 | 4.3 | 18.2 | 0.00 | 0.00 | 0.00 | 67 | 1005.5 |
| 20260505170458 | 82 | 210 | 5.2 | 20.0 | 0.00 | 0.00 | 0.00 | 67 | 1005.2 |
| 20260505165954 | 82 | 236 | 7.8 | 20.0 | 0.00 | 0.00 | 0.00 | 67 | 1005.2 |
| 20260505165450 | 82 | 242 | 7.8 | 15.6 | 0.00 | 0.00 | 0.00 | 67 | 1005.3 |
| 20260505164945 | 82 | 167 | 6.1 | 20.0 | 0.00 | 0.00 | 0.00 | 66 | 1005.1 |
| 20260505164442 | 82 | 130 | 4.3 | 13.0 | 0.00 | 0.00 | 0.00 | 66 | 1005.3 |
| 20260505163940 | 82 | 196 | 7.8 | 26.9 | 0.00 | 0.00 | 0.00 | 67 | 1005.3 |
| 20260505163439 | 82 | 185 | 4.3 | 24.3 | 0.00 | 0.00 | 0.00 | 67 | 1005.3 |
| 20260505162937 | 82 | 200 | 18.2 | 24.3 | 0.00 | 0.00 | 0.00 | 67 | 1005.1 |
| 20260505162433 | 82 | 340 | 9.6 | 15.6 | 0.00 | 0.00 | 0.00 | 67 | 1005.1 |
| 20260505161930 | 81 | 137 | 7.0 | 33.0 | 0.00 | 0.00 | 0.00 | 69 | 1005.1 |
| 20260505161426 | 81 | 187 | 10.4 | 26.9 | 0.00 | 0.00 | 0.00 | 68 | 1004.8 |
| 20260505160924 | 80 | 219 | 7.0 | 22.6 | 0.00 | 0.00 | 0.00 | 69 | 1005.0 |
| 20260505160422 | 79 | 267 | 11.3 | 20.0 | 0.00 | 0.00 | 0.00 | 71 | 1004.8 |
| 20260505152858 | 77 | 191 | 8.7 | 11.3 | 0.00 | 0.00 | 0.00 | 76 | 1004.6 |
| 20260505152355 | 77 | 170 | 4.3 | 24.3 | 0.00 | 0.00 | 0.00 | 75 | 1004.6 |
| 20260505151849 | 77 | 116 | 5.2 | 13.0 | 0.00 | 0.00 | 0.00 | 75 | 1004.9 |
| 20260505151346 | 77 | 137 | 11.3 | 24.3 | 0.00 | 0.00 | 0.00 | 75 | 1004.7 |
| 20260505150843 | 77 | 196 | 9.6 | 20.0 | 0.00 | 0.00 | 0.00 | 75 | 1004.9 |
| 20260505150341 | 76 | 102 | 6.1 | 26.9 | 0.00 | 0.00 | 0.00 | 77 | 1004.9 |
| 20260505140310 | 73 | 28 | 6.1 | 15.6 | 0.00 | 0.00 | 0.00 | 82 | 1004.6 |
| 20260505130234 | 71 | 185 | 1.7 | 20.0 | 0.00 | 0.00 | 0.00 | 86 | 1004.4 |